Regional Weather Roundup
Issued by NWS Goodland, KS

Home | Current Version | Previous Version | Text Only | Print | Product List | Glossary Off
Versions: 1 2 3 4 5 6 7 8 9 10 11 12 13 14 15 16 17 18 19 20 21 22 23 24 25 26 27 28 29 30 31 32 33 34 35 36 37 38 39 40 41 42 43 44 45 46 47 48 49 50

000
ASUS43 KGLD 312259
RWRGLD

GOODLAND FORECAST AREA HOURLY WEATHER ROUNDUP
NATIONAL WEATHER SERVICE GOODLAND KS
500 PM MDT TUE MAY 31 2016

...OFFICIAL OBSERVATIONS...

CITY           SKY/WX    TMP DP  RH WIND       PRES   REMARKS
GOODLAND KS    MOSUNNY   68  47  46 NE8       30.02S
HILL CITY KS   SUNNY     75  51  43 NE9       29.97S
IMPERIAL NEB   SUNNY     69  45  41 N6        30.02S
MCCOOK NEB     SUNNY     72  47  40 N5        30.00S
AKRON CO       MOSUNNY   66  48  52 E9G18     30.06S
BURLINGTON CO  MOSUNNY   69  44  40 NE7       30.03S
LIMON CO       CLOUDY    63  48  58 E6        30.07S
$$

...UNOFFICIAL OBSERVATIONS...

CITY           SKY/WX    TMP DP  RH WIND       PRES   REMARKS
GOVE KS          N/A     74  32  21 MISG        N/A
LENORA KS        N/A     72  32  23 MISG        N/A
SHARON SPRINGS   N/A     70  53  55 NE6         N/A
TRIBUNE KS     PTSUNNY   73  54  49 E9        30.02F
KIT CARSON CO    N/A     70  50  48 CALM        N/A
YUMA CO          N/A     66  49  54 NE5         N/A
$$




USA.gov is the U.S. government's official web portal to all federal, state and local government web resources and services.